Regional Weather Roundup
Issued by NWS

Home | Current Version | Previous Version | Text Only | Print | Product List | Glossary Off
Versions: 1 2 3 4 5 6 7 8 9 10 11 12 13 14 15 16 17 18 19 20 21 22 23 24 25 26 27 28 29 30 31 32 33 34 35 36 37 38 39 40 41 42 43 44 45 46 47 48 49 50

000
ASUS45 KBOI 280810
RWRID

IDAHO REGIONAL WEATHER ROUNDUP
NATIONAL WEATHER SERVICE BOISE ID
200 AM MDT FRI AUG 28 2015

NOTE: "FAIR" INDICATES FEW OR NO CLOUDS BELOW 12000 FEET
WITH NO SIGNIFICANT WEATHER AND/OR OBSTRUCTIONS TO VISIBILITY

IDZ012-014-280900-
SOUTHWEST IDAHO


CITY           SKY/WX    TMP DP  RH WIND       PRES   REMARKS
BOISE          PTCLDY    74  36  25 SE6       30.02R
CALDWELL       PTCLDY    63  43  48 NE6       30.01S
MOUNTAIN HOME  PTCLDY    65  36  34 E5        30.04S
$$

IDZ016-017-280900-
SOUTHCENTRAL IDAHO


CITY           SKY/WX    TMP DP  RH WIND       PRES   REMARKS
BURLEY         CLEAR     60  46  59 S3        30.14R
JEROME         CLEAR     65  41  41 E8        30.13R
TWIN FALLS     PTCLDY    71  33  24 S10       30.13S
$$

IDZ019>023-280900-
SOUTHEAST IDAHO


CITY           SKY/WX    TMP DP  RH WIND       PRES   REMARKS
IDAHO FALLS    CLEAR     59  42  53 SW9       30.18R
POCATELLO      CLEAR     67  35  30 SW8       30.17R
REXBURG        CLEAR     53  43  68 CALM      30.18S
$$

IDZ006-010-011-018-031-032-280900-
CENTRAL IDAHO MOUNTAINS


CITY           SKY/WX    TMP DP  RH WIND       PRES   REMARKS
MCCALL         PTCLDY    54  37  52 N3        30.17S
HAILEY         CLEAR     59  37  44 W13       30.24R
STANLEY          N/A     44  27  51 CALM      30.33R
SALMON         CLOUDY    57  43  58 CALM      30.15R
CHALLIS        MOCLDY    56  33  42 CALM      30.22R
$$

IDZ002-004-006-007-026-280900-
NORTHERN IDAHO


CITY           SKY/WX    TMP DP  RH WIND       PRES   REMARKS
LEWISTON       PTCLDY    69  39  33 SE6       29.95F
LOWELL           N/A     59  52  77 N3        30.04F
COEUR D`ALENE  PTCLDY    63  43  48 E3        29.99R
MULLAN PASS    CLEAR     61  34  36 SW8       30.21F
$$



USA.gov is the U.S. government's official web portal to all federal, state and local government web resources and services.